Terre Haute, IN

11:22 AM EST on December 12, 2019 (GMT -0500)
Terre Haute International-Hulman

Weather History for KHUF - October, 2019

Change the Weather History Date:

Sunday, October 6, 2019

  Actual Average Record
Temperature  
Mean Temperature 62 °F 58 °F  
Max Temperature 66 °F 70 °F 88 °F (1954)
Min Temperature 57 °F 45 °F 30 °F (1964)
Degree Days  
Heating Degree Days 3 8  
Month to date heating degree days 11 45  
Since 1 July heating degree days 13 123  
Cooling Degree Days 0 1  
Month to date cooling degree days 34 6  
Year to date cooling degree days 1298 984  
Growing Degree Days 10 (Base 50)    
Moisture  
Dew Point 56 °F    
Average Humidity 78    
Maximum Humidity 93    
Minimum Humidity 63    
Precipitation  
Precipitation 0.42 in 0.11 in 0.62 in (2013)
Month to date precipitation 0.42 0.66  
Year to date precipitation 38.35 35.36  
Sea Level Pressure  
Sea Level Pressure 30.08 in    
Wind  
Wind Speed 2 mph (NNW)    
Max Wind Speed 10 mph    
Max Gust Speed 16 mph    
Visibility 8 miles    
Events Rain    
T = Trace of Precipitation, MM = Missing Value Source: NWS Daily Summary

Daily Weather History Graph

Daily Weather History Graph

Search for Another Location

Airport or City:

Astronomy

Oct. 06, 2019 Rise Set
Actual Time 7:49 AM EDT 7:24 PM EDT
Civil Twilight 7:23 AM EDT 7:50 PM EDT
Nautical Twilight 6:52 AM EDT 8:22 PM EDT
Astronomical Twilight 6:20 AM EDT 8:53 PM EDT
Moon 4:00 PM EDT (10/6) 12:50 AM EDT (10/6)
Length of Visible Light 12h 27m
Length of Day
11h 34m
First Quarter, 59% of the Moon is Illuminated
Oct 6
First Quarter
Oct 13
Full
Oct 21
Last Quarter
Oct 27
New
Nov 4
First Quarter

Hourly Weather History & Observations

Time (EDT) Temp. Dew Point Humidity Pressure Visibility Wind Dir Wind Speed Gust Speed Precip Events Conditions
12:53 AM 64.0 °F 55.9 °F 75% 29.96 in 10.0 mi SE 4.6 mph - N/A   Overcast
1:21 AM 64.9 °F 57.0 °F 75% 29.97 in 10.0 mi Calm Calm - N/A   Overcast
1:53 AM 64.9 °F 54.0 °F 68% 29.96 in 10.0 mi South 9.2 mph - N/A   Mostly Cloudy
2:53 AM 61.0 °F 53.1 °F 75% 29.95 in 10.0 mi Calm Calm - N/A   Scattered Clouds
3:53 AM 59.0 °F 54.0 °F 83% 29.95 in 10.0 mi SSW 3.5 mph - N/A   Clear
4:53 AM 60.1 °F 55.0 °F 83% 29.97 in 10.0 mi Calm Calm - N/A   Mostly Cloudy
5:53 AM 59.0 °F 55.0 °F 87% 29.99 in 10.0 mi Calm Calm - N/A   Mostly Cloudy
6:53 AM 61.0 °F 55.9 °F 83% 30.02 in 10.0 mi Calm Calm - N/A   Overcast
7:53 AM 63.0 °F 57.0 °F 81% 30.05 in 10.0 mi NNW 5.8 mph - N/A   Overcast
8:19 AM 61.0 °F 57.9 °F 90% 30.08 in 2.5 mi NNW 6.9 mph - 0.05 in Rain Rain
8:27 AM 61.0 °F 59.0 °F 93% 30.08 in 4.0 mi NNW 5.8 mph - 0.06 in Rain Rain
8:48 AM 60.8 °F 59.0 °F 94% 30.09 in 2.5 mi North 5.8 mph - 0.11 in Rain Light Rain
8:53 AM 61.0 °F 59.0 °F 93% 30.08 in 6.0 mi NNE 3.5 mph - 0.12 in Rain Light Rain
9:00 AM 61.0 °F 59.0 °F 93% 30.08 in 10.0 mi North 4.6 mph - 0.00 in   Overcast
9:08 AM 61.0 °F 60.1 °F 97% 30.08 in 10.0 mi North 4.6 mph - 0.00 in Rain Light Rain
9:53 AM 59.0 °F 57.0 °F 93% 30.12 in 3.0 mi NW 5.8 mph - 0.09 in Rain Heavy Rain
10:01 AM 59.0 °F 55.0 °F 87% 30.15 in 1.8 mi West 4.6 mph - 0.05 in Rain Rain
10:23 AM 57.0 °F 54.0 °F 89% 30.15 in 3.0 mi North 3.5 mph - 0.19 in Rain Light Rain
10:53 AM 59.0 °F 53.1 °F 81% 30.13 in 10.0 mi North 4.6 mph - 0.19 in   Overcast
11:53 AM 62.1 °F 54.0 °F 75% 30.13 in 10.0 mi North 5.8 mph - N/A   Mostly Cloudy
12:53 PM 62.1 °F 51.1 °F 67% 30.14 in 10.0 mi North - - 0.00 in Rain Light Rain
1:53 PM 63.0 °F 50.0 °F 63% 30.15 in 10.0 mi Calm Calm - 0.00 in   Overcast
2:53 PM 64.9 °F 51.1 °F 61% 30.13 in 10.0 mi Calm Calm - N/A   Partly Cloudy
3:53 PM 63.0 °F 55.0 °F 75% 30.14 in 10.0 mi South 3.5 mph - N/A   Partly Cloudy
4:53 PM 62.1 °F 55.0 °F 78% 30.14 in 10.0 mi SW 3.5 mph - 0.00 in Rain Light Rain
5:53 PM 62.1 °F 57.0 °F 84% 30.13 in 10.0 mi Calm Calm - 0.01 in Rain Light Rain
6:53 PM 60.1 °F 57.0 °F 90% 30.13 in 10.0 mi Calm Calm - 0.01 in   Overcast
7:53 PM 60.1 °F 57.9 °F 93% 30.13 in 9.0 mi Calm Calm - N/A   Overcast
8:53 PM 60.1 °F 57.9 °F 93% 30.14 in 10.0 mi Calm Calm - N/A   Overcast
9:53 PM 59.0 °F 57.9 °F 96% 30.16 in 10.0 mi Calm Calm - N/A   Overcast
10:53 PM 59.0 °F 57.9 °F 96% 30.16 in 10.0 mi South 3.5 mph - 0.00 in   Overcast
11:53 PM 59.0 °F 57.9 °F 96% 30.17 in 9.0 mi Calm Calm - N/A   Overcast